Location: Alafon
(8.4500°N, 4.2333°E)
Time: 16:44:30
(UTC+00:00)

SR - Pass Details

Date: 10 August 2021
Orbit: 581 x 874 km, 66.7° (Epoch: 18 September)

Event Time Altitude Azimuth Distance (km) Brightness Sun altitude
Rises 02:53:43 0° 218° (SW) 3,443 - -38.2°
Reaches altitude 10° 02:56:24 10° 227° (SW) 2,515 - -37.7°
Maximum altitude 03:01:42 35° 291° (WNW) 1,360 - -36.5°
Exits shadow 03:06:19 13° 353° (N) 2,272 ? -35.5°
Drops below altitude 10° 03:06:56 10° 356° (N) 2,474 ? -35.3°
Sets 03:09:34 0° 5° (N) 3,380 ? -34.7°
